| time (UTC) | temp F | wind direction | speed MPH | gust MPH | rain 1hr in | rain 24hr in | rain mn in | humidity % | barometer mb |
| 20260510060943 | 51 | 82 | 1.0 | 2.0 | 0.00 | 0.00 | 0.00 | 93 | 1011.0 |
| 20260510060441 | 50 | 98 | 0.0 | 2.0 | 0.00 | 0.00 | 0.00 | 93 | 1011.0 |
| 20260510055941 | 51 | 98 | 0.0 | 2.0 | 0.00 | 0.00 | 0.00 | 93 | 1011.0 |
| 20260510055446 | 50 | 98 | 0.0 | 2.0 | 0.00 | 0.00 | 0.00 | 93 | 1010.9 |
| 20260510054939 | 50 | 98 | 0.0 | 2.0 | 0.00 | 0.00 | 0.00 | 92 | 1010.9 |
| 20260510054439 | 51 | 98 | 0.0 | 2.0 | 0.00 | 0.00 | 0.00 | 92 | 1010.9 |
| 20260510053939 | 51 | 98 | 0.0 | 0.0 | 0.00 | 0.00 | 0.00 | 92 | 1011.0 |
| 20260510053434 | 51 | 98 | 0.0 | 0.0 | 0.00 | 0.00 | 0.00 | 91 | 1011.0 |
| 20260510052933 | 51 | 98 | 0.0 | 1.0 | 0.00 | 0.00 | 0.00 | 90 | 1010.9 |
| 20260510052433 | 52 | 98 | 0.0 | 1.0 | 0.00 | 0.00 | 0.00 | 91 | 1011.0 |
| 20260510051931 | 52 | 98 | 0.0 | 1.0 | 0.00 | 0.00 | 0.00 | 91 | 1010.9 |
| 20260510051432 | 52 | 98 | 0.0 | 2.0 | 0.00 | 0.00 | 0.00 | 90 | 1011.0 |
| 20260510050931 | 53 | 98 | 1.0 | 2.0 | 0.00 | 0.00 | 0.00 | 89 | 1010.9 |
| 20260510050656 | 53 | 88 | 0.0 | 2.0 | 0.00 | 0.00 | 0.00 | 90 | 1011.0 |
| 20260510045929 | 53 | 82 | 0.0 | 2.0 | 0.00 | 0.00 | 0.00 | 90 | 1011.0 |
| 20260510045657 | 53 | 82 | 0.0 | 2.0 | 0.00 | 0.00 | 0.00 | 91 | 1011.0 |
| 20260510044927 | 52 | 95 | 0.0 | 2.0 | 0.00 | 0.00 | 0.00 | 91 | 1011.0 |
| 20260510044652 | 52 | 95 | 0.0 | 2.0 | 0.00 | 0.00 | 0.00 | 92 | 1011.0 |
| 20260510044147 | 52 | 95 | 0.0 | 0.0 | 0.00 | 0.00 | 0.00 | 92 | 1011.0 |
| 20260510043425 | 52 | 95 | 0.0 | 0.0 | 0.00 | 0.00 | 0.00 | 91 | 1011.0 |
| 20260510042925 | 52 | 95 | 0.0 | 0.0 | 0.00 | 0.00 | 0.00 | 89 | 1010.9 |
| 20260510042425 | 53 | 95 | 0.0 | 2.0 | 0.00 | 0.00 | 0.00 | 87 | 1010.8 |
| 20260510042142 | 54 | 95 | 0.0 | 2.0 | 0.00 | 0.00 | 0.00 | 88 | 1010.8 |
| 20260510041423 | 54 | 95 | 0.0 | 2.0 | 0.00 | 0.00 | 0.00 | 88 | 1010.8 |
| 20260510040928 | 54 | 56 | 0.0 | 2.0 | 0.00 | 0.00 | 0.00 | 88 | 1010.8 |
| 20260510040645 | 53 | 56 | 0.0 | 2.0 | 0.00 | 0.00 | 0.00 | 89 | 1010.9 |
| 20260510035921 | 53 | 55 | 0.0 | 2.0 | 0.00 | 0.00 | 0.00 | 88 | 1010.9 |
| 20260510035419 | 54 | 321 | 0.0 | 2.0 | 0.00 | 0.00 | 0.00 | 87 | 1010.8 |
| 20260510034913 | 55 | 321 | 0.0 | 2.0 | 0.00 | 0.00 | 0.00 | 86 | 1010.8 |
| 20260510034414 | 55 | 321 | 1.0 | 3.0 | 0.00 | 0.00 | 0.00 | 86 | 1010.8 |
| 20260510033911 | 55 | 86 | 2.0 | 3.0 | 0.00 | 0.00 | 0.00 | 87 | 1010.8 |
| 20260510033627 | 55 | 94 | 1.0 | 3.0 | 0.00 | 0.00 | 0.00 | 87 | 1010.8 |
| 20260510032908 | 54 | 98 | 2.0 | 3.0 | 0.00 | 0.00 | 0.00 | 90 | 1010.8 |
| 20260510032402 | 53 | 73 | 1.0 | 3.0 | 0.00 | 0.00 | 0.00 | 89 | 1010.6 |
| 20260510031906 | 53 | 110 | 0.0 | 2.0 | 0.00 | 0.00 | 0.00 | 89 | 1010.6 |
| 20260510031359 | 54 | 319 | 1.0 | 2.0 | 0.00 | 0.00 | 0.00 | 89 | 1010.5 |
| 20260510030857 | 54 | 319 | 1.0 | 2.0 | 0.00 | 0.00 | 0.00 | 87 | 1010.4 |
| 20260510030356 | 55 | 67 | 0.0 | 1.0 | 0.00 | 0.00 | 0.00 | 87 | 1010.4 |
| 20260510025854 | 55 | 108 | 0.0 | 1.0 | 0.00 | 0.00 | 0.00 | 86 | 1010.3 |
| 20260510025353 | 56 | 108 | 0.0 | 2.0 | 0.00 | 0.00 | 0.00 | 84 | 1010.2 |
| 20260510025116 | 57 | 108 | 0.0 | 2.0 | 0.00 | 0.00 | 0.00 | 83 | 1010.1 |
| 20260510024354 | 57 | 108 | 0.0 | 0.0 | 0.00 | 0.00 | 0.00 | 84 | 1010.2 |
| 20260510023854 | 56 | 108 | 0.0 | 0.0 | 0.00 | 0.00 | 0.00 | 84 | 1010.0 |
| 20260510023354 | 57 | 108 | 0.0 | 2.0 | 0.00 | 0.00 | 0.00 | 82 | 1010.1 |
| 20260510022853 | 58 | 108 | 0.0 | 2.0 | 0.00 | 0.00 | 0.00 | 77 | 1010.0 |
| 20260510022620 | 58 | 108 | 0.0 | 2.0 | 0.00 | 0.00 | 0.00 | 77 | 1010.0 |
| 20260510021854 | 60 | 108 | 1.0 | 2.0 | 0.00 | 0.00 | 0.00 | 73 | 1010.0 |
| 20260510021353 | 62 | 108 | 1.0 | 3.0 | 0.00 | 0.00 | 0.00 | 71 | 1009.9 |
| 20260510020854 | 63 | 105 | 1.0 | 3.0 | 0.00 | 0.00 | 0.00 | 69 | 1009.9 |
| 20260510020354 | 63 | 107 | 2.0 | 3.0 | 0.00 | 0.00 | 0.00 | 68 | 1009.8 |
| 20260510015854 | 63 | 105 | 1.0 | 3.0 | 0.00 | 0.00 | 0.00 | 69 | 1009.8 |
| 20260510015353 | 63 | 109 | 1.0 | 2.0 | 0.00 | 0.00 | 0.00 | 69 | 1009.7 |
| 20260510014854 | 62 | 128 | 1.0 | 2.0 | 0.00 | 0.00 | 0.00 | 71 | 1009.6 |
| 20260510014353 | 62 | 128 | 1.0 | 2.0 | 0.00 | 0.00 | 0.00 | 69 | 1009.4 |
| 20260510013853 | 64 | 131 | 1.0 | 2.0 | 0.00 | 0.00 | 0.00 | 66 | 1009.4 |
| 20260510013348 | 64 | 109 | 0.0 | 2.0 | 0.00 | 0.00 | 0.00 | 66 | 1009.4 |
| 20260510012847 | 64 | 109 | 1.0 | 2.0 | 0.00 | 0.00 | 0.00 | 66 | 1009.3 |
| 20260510012611 | 65 | 109 | 1.0 | 2.0 | 0.00 | 0.00 | 0.00 | 65 | 1009.3 |
| 20260510011845 | 65 | 127 | 1.0 | 2.0 | 0.00 | 0.00 | 0.00 | 65 | 1009.1 |
| 20260510011346 | 65 | 130 | 1.0 | 2.0 | 0.00 | 0.00 | 0.00 | 65 | 1009.0 |
| 20260510011113 | 65 | 120 | 1.0 | 2.0 | 0.00 | 0.00 | 0.00 | 65 | 1008.9 |
| 20260510010604 | 65 | 130 | 1.0 | 2.0 | 0.00 | 0.00 | 0.00 | 65 | 1008.9 |
| 20260510010103 | 65 | 115 | 0.0 | 2.0 | 0.00 | 0.00 | 0.00 | 65 | 1008.9 |
| 20260510005346 | 65 | 115 | 1.0 | 2.0 | 0.00 | 0.00 | 0.00 | 63 | 1008.9 |
| 20260510004838 | 65 | 105 | 1.0 | 2.0 | 0.00 | 0.00 | 0.00 | 63 | 1008.8 |
| 20260510004337 | 66 | 103 | 1.0 | 1.0 | 0.00 | 0.00 | 0.00 | 63 | 1008.8 |
| 20260510003838 | 66 | 118 | 1.0 | 1.0 | 0.00 | 0.00 | 0.00 | 61 | 1008.7 |
| 20260510003336 | 67 | 134 | 1.0 | 2.0 | 0.00 | 0.00 | 0.00 | 61 | 1008.7 |
| 20260510002836 | 68 | 134 | 1.0 | 2.0 | 0.00 | 0.00 | 0.00 | 58 | 1008.6 |
| 20260510002335 | 69 | 146 | 1.0 | 2.0 | 0.00 | 0.00 | 0.00 | 55 | 1008.5 |
| 20260510001835 | 70 | 158 | 0.0 | 2.0 | 0.00 | 0.00 | 0.00 | 53 | 1008.4 |
| 20260510001329 | 71 | 158 | 1.0 | 2.0 | 0.00 | 0.00 | 0.00 | 52 | 1008.5 |
| 20260510000829 | 71 | 156 | 1.0 | 2.0 | 0.00 | 0.00 | 0.00 | 51 | 1008.5 |
| 20260510000329 | 71 | 184 | 1.0 | 4.0 | 0.00 | 0.00 | 0.00 | 51 | 1008.4 |
| 20260509235824 | 71 | 182 | 2.0 | 4.0 | 0.00 | 0.00 | 0.00 | 51 | 1008.4 |
| 20260509235554 | 72 | 209 | 2.0 | 5.0 | 0.00 | 0.00 | 0.00 | 51 | 1008.4 |
| 20260509234822 | 72 | 202 | 2.0 | 8.0 | 0.00 | 0.00 | 0.00 | 50 | 1008.3 |
| 20260509234552 | 73 | 198 | 2.0 | 8.0 | 0.00 | 0.00 | 0.00 | 50 | 1008.2 |
| 20260509233820 | 73 | 214 | 3.0 | 8.0 | 0.00 | 0.00 | 0.00 | 50 | 1008.2 |
| 20260509233317 | 73 | 210 | 3.0 | 8.0 | 0.00 | 0.00 | 0.00 | 49 | 1008.2 |
| 20260509232817 | 73 | 0 | 2.0 | 6.0 | 0.00 | 0.00 | 0.00 | 49 | 1008.2 |
| 20260509232317 | 74 | 198 | 2.0 | 5.0 | 0.00 | 0.00 | 0.00 | 50 | 1008.2 |
| 20260509231813 | 74 | 222 | 3.0 | 5.0 | 0.00 | 0.00 | 0.00 | 49 | 1008.1 |
| 20260509231313 | 74 | 200 | 3.0 | 6.0 | 0.00 | 0.00 | 0.00 | 48 | 1008.1 |
| 20260509230813 | 74 | 171 | 3.0 | 6.0 | 0.00 | 0.00 | 0.00 | 48 | 1008.1 |
| 20260509230311 | 75 | 239 | 3.0 | 6.0 | 0.00 | 0.00 | 0.00 | 48 | 1008.1 |
| 20260509230033 | 75 | 227 | 3.0 | 6.0 | 0.00 | 0.00 | 0.00 | 48 | 1008.1 |
| 20260509225316 | 75 | 0 | 3.0 | 9.0 | 0.00 | 0.00 | 0.00 | 48 | 1008.2 |
| 20260509225030 | 75 | 257 | 3.0 | 9.0 | 0.00 | 0.00 | 0.00 | 49 | 1008.1 |
| 20260509224540 | 75 | 178 | 3.0 | 9.0 | 0.00 | 0.00 | 0.00 | 48 | 1008.0 |
| 20260509224256 | 75 | 188 | 3.0 | 9.0 | 0.00 | 0.00 | 0.00 | 49 | 1008.1 |
| 20260509223303 | 75 | 159 | 2.0 | 5.0 | 0.00 | 0.00 | 0.00 | 49 | 1008.1 |
| 20260509222803 | 74 | 225 | 2.0 | 4.0 | 0.00 | 0.00 | 0.00 | 51 | 1008.2 |
| 20260509222306 | 74 | 192 | 1.0 | 4.0 | 0.00 | 0.00 | 0.00 | 50 | 1008.1 |
| 20260509221801 | 74 | 194 | 2.0 | 6.0 | 0.00 | 0.00 | 0.00 | 49 | 1008.2 |
| 20260509221525 | 74 | 215 | 3.0 | 6.0 | 0.00 | 0.00 | 0.00 | 49 | 1008.1 |
| 20260509220801 | 74 | 212 | 4.0 | 8.0 | 0.00 | 0.00 | 0.00 | 48 | 1008.1 |
| 20260509220259 | 74 | 225 | 4.0 | 9.0 | 0.00 | 0.00 | 0.00 | 47 | 1008.2 |
| 20260509215759 | 74 | 199 | 4.0 | 9.0 | 0.00 | 0.00 | 0.00 | 48 | 1008.2 |
| 20260509215306 | 74 | 230 | 5.0 | 10.0 | 0.00 | 0.00 | 0.00 | 47 | 1008.2 |
| 20260509214757 | 74 | 0 | 6.0 | 11.0 | 0.00 | 0.00 | 0.00 | 46 | 1008.1 |
| 20260509214257 | 74 | 209 | 4.0 | 12.0 | 0.00 | 0.00 | 0.00 | 47 | 1008.1 |
| 20260509213757 | 75 | 0 | 4.0 | 12.0 | 0.00 | 0.00 | 0.00 | 48 | 1007.9 |
| 20260509213255 | 75 | 242 | 6.0 | 12.0 | 0.00 | 0.00 | 0.00 | 46 | 1008.0 |
| 20260509212755 | 75 | 204 | 6.0 | 12.0 | 0.00 | 0.00 | 0.00 | 47 | 1008.1 |
| 20260509212254 | 75 | 176 | 4.0 | 13.0 | 0.00 | 0.00 | 0.00 | 47 | 1007.9 |
| 20260509211753 | 75 | 154 | 4.0 | 13.0 | 0.00 | 0.00 | 0.00 | 48 | 1008.0 |
| 20260509211253 | 75 | 198 | 5.0 | 13.0 | 0.00 | 0.00 | 0.00 | 46 | 1007.9 |
| 20260509211027 | 76 | 0 | 6.0 | 13.0 | 0.00 | 0.00 | 0.00 | 47 | 1007.9 |
| 20260509210517 | 77 | 186 | 5.0 | 12.0 | 0.00 | 0.00 | 0.00 | 45 | 1008.0 |
| 20260509205751 | 77 | 202 | 5.0 | 9.0 | 0.00 | 0.00 | 0.00 | 45 | 1007.8 |
| 20260509205251 | 77 | 263 | 6.0 | 13.0 | 0.00 | 0.00 | 0.00 | 46 | 1007.8 |
| 20260509204749 | 76 | 201 | 6.0 | 13.0 | 0.00 | 0.00 | 0.00 | 46 | 1007.9 |
| 20260509204249 | 75 | 207 | 5.0 | 9.0 | 0.00 | 0.00 | 0.00 | 49 | 1007.8 |
| 20260509203748 | 74 | 254 | 5.0 | 9.0 | 0.00 | 0.00 | 0.00 | 48 | 1007.8 |
| 20260509203247 | 74 | 192 | 5.0 | 9.0 | 0.00 | 0.00 | 0.00 | 49 | 1007.8 |
| 20260509202747 | 74 | 127 | 4.0 | 9.0 | 0.00 | 0.00 | 0.00 | 47 | 1007.8 |
| 20260509202252 | 74 | 223 | 4.0 | 11.0 | 0.00 | 0.00 | 0.00 | 49 | 1007.8 |
| 20260509201745 | 75 | 217 | 4.0 | 11.0 | 0.00 | 0.00 | 0.00 | 48 | 1007.8 |
| 20260509201245 | 75 | 210 | 6.0 | 15.0 | 0.00 | 0.00 | 0.00 | 49 | 1007.8 |
| 20260509200748 | 76 | 220 | 6.0 | 15.0 | 0.00 | 0.00 | 0.00 | 46 | 1007.8 |
| 20260509200241 | 76 | 215 | 4.0 | 15.0 | 0.00 | 0.00 | 0.00 | 48 | 1007.8 |
| 20260509195741 | 74 | 279 | 4.0 | 15.0 | 0.00 | 0.00 | 0.00 | 49 | 1007.9 |
| 20260509195240 | 75 | 202 | 5.0 | 15.0 | 0.00 | 0.00 | 0.00 | 49 | 1008.0 |
| 20260509194959 | 75 | 221 | 7.0 | 15.0 | 0.00 | 0.00 | 0.00 | 46 | 1008.1 |
| 20260509194238 | 76 | 256 | 7.0 | 13.0 | 0.00 | 0.00 | 0.00 | 47 | 1008.2 |
| 20260509193738 | 75 | 271 | 7.0 | 14.0 | 0.00 | 0.00 | 0.00 | 46 | 1008.3 |
| 20260509193237 | 76 | 213 | 6.0 | 14.0 | 0.00 | 0.00 | 0.00 | 45 | 1008.4 |
| 20260509192737 | 76 | 270 | 7.0 | 15.0 | 0.00 | 0.00 | 0.00 | 47 | 1008.4 |
| 20260509192234 | 75 | 0 | 7.0 | 15.0 | 0.00 | 0.00 | 0.00 | 49 | 1008.5 |
| 20260509191740 | 75 | 236 | 8.0 | 18.0 | 0.00 | 0.00 | 0.00 | 48 | 1008.5 |
| 20260509191230 | 73 | 246 | 10.0 | 18.0 | 0.00 | 0.00 | 0.00 | 49 | 1008.5 |
| 20260509190953 | 74 | 262 | 8.0 | 16.0 | 0.00 | 0.00 | 0.00 | 48 | 1008.7 |
| 20260509190457 | 74 | 208 | 7.0 | 14.0 | 0.00 | 0.00 | 0.00 | 48 | 1008.6 |
| 20260509185729 | 74 | 274 | 9.0 | 17.0 | 0.00 | 0.00 | 0.00 | 49 | 1008.7 |
| 20260509185717 | 73 | 215 | 9.0 | 17.0 | 0.00 | 0.00 | 0.00 | 50 | 1008.9 |
| 20260509184728 | 73 | 277 | 9.0 | 17.0 | 0.00 | 0.00 | 0.00 | 48 | 1009.0 |
| 20260509184222 | 74 | 259 | 9.0 | 17.0 | 0.00 | 0.00 | 0.00 | 47 | 1009.2 |
| 20260509183723 | 74 | 230 | 9.0 | 17.0 | 0.00 | 0.00 | 0.00 | 48 | 1009.3 |
| 20260509183227 | 74 | 274 | 9.0 | 17.0 | 0.00 | 0.00 | 0.00 | 51 | 1009.3 |
| 20260509182715 | 73 | 283 | 8.0 | 17.0 | 0.00 | 0.00 | 0.00 | 54 | 1009.4 |
| 20260509182214 | 72 | 282 | 7.0 | 17.0 | 0.00 | 0.00 | 0.00 | 52 | 1009.5 |
| 20260509182201 | 72 | 250 | 6.0 | 16.0 | 0.00 | 0.00 | 0.00 | 56 | 1009.5 |
| 20260509181209 | 72 | 280 | 5.0 | 10.0 | 0.00 | 0.00 | 0.00 | 56 | 1009.6 |
| 20260509180707 | 71 | 248 | 6.0 | 12.0 | 0.00 | 0.00 | 0.00 | 57 | 1009.8 |
| 20260509180206 | 70 | 261 | 8.0 | 13.0 | 0.00 | 0.00 | 0.00 | 57 | 1009.8 |
| 20260509175923 | 70 | 256 | 8.0 | 14.0 | 0.00 | 0.00 | 0.00 | 58 | 1009.9 |
| 20260509175204 | 71 | 271 | 7.0 | 14.0 | 0.00 | 0.00 | 0.00 | 57 | 1010.0 |
| 20260509174705 | 71 | 223 | 6.0 | 13.0 | 0.00 | 0.00 | 0.00 | 59 | 1010.0 |
| 20260509174200 | 71 | 234 | 7.0 | 14.0 | 0.00 | 0.00 | 0.00 | 57 | 1010.0 |
| 20260509173701 | 71 | 310 | 6.0 | 14.0 | 0.00 | 0.00 | 0.00 | 57 | 1010.0 |
| 20260509173201 | 70 | 200 | 6.0 | 13.0 | 0.00 | 0.00 | 0.00 | 58 | 1010.0 |
| 20260509172701 | 70 | 200 | 7.0 | 16.0 | 0.00 | 0.00 | 0.00 | 58 | 1010.2 |
| 20260509172200 | 70 | 0 | 8.0 | 16.0 | 0.00 | 0.00 | 0.00 | 56 | 1010.1 |
| 20260509171700 | 71 | 232 | 8.0 | 16.0 | 0.00 | 0.00 | 0.00 | 56 | 1010.1 |
| 20260509171201 | 71 | 212 | 8.0 | 16.0 | 0.00 | 0.00 | 0.00 | 57 | 1010.1 |
| 20260509170701 | 70 | 216 | 7.0 | 15.0 | 0.00 | 0.00 | 0.00 | 58 | 1010.1 |
| 20260509170201 | 70 | 163 | 6.0 | 15.0 | 0.00 | 0.00 | 0.00 | 60 | 1010.2 |
| 20260509165656 | 69 | 265 | 6.0 | 14.0 | 0.00 | 0.00 | 0.00 | 60 | 1010.3 |
| 20260509165157 | 69 | 197 | 6.0 | 13.0 | 0.00 | 0.00 | 0.00 | 61 | 1010.5 |
| 20260509164656 | 68 | 217 | 6.0 | 13.0 | 0.00 | 0.00 | 0.00 | 60 | 1010.4 |
| 20260509164417 | 68 | 181 | 5.0 | 11.0 | 0.00 | 0.00 | 0.00 | 61 | 1010.4 |
| 20260509163657 | 68 | 252 | 6.0 | 13.0 | 0.00 | 0.00 | 0.00 | 62 | 1010.5 |
| 20260509163156 | 67 | 176 | 6.0 | 13.0 | 0.00 | 0.00 | 0.00 | 61 | 1010.5 |
| 20260509162657 | 67 | 220 | 8.0 | 13.0 | 0.00 | 0.00 | 0.00 | 60 | 1010.5 |
| 20260509162157 | 68 | 264 | 7.0 | 15.0 | 0.00 | 0.00 | 0.00 | 60 | 1010.5 |
| 20260509161651 | 69 | 228 | 5.0 | 15.0 | 0.00 | 0.00 | 0.00 | 58 | 1010.5 |
| 20260509161150 | 68 | 175 | 6.0 | 14.0 | 0.00 | 0.00 | 0.00 | 58 | 1010.6 |
| 20260509160649 | 68 | 194 | 7.0 | 11.0 | 0.00 | 0.00 | 0.00 | 59 | 1010.6 |
| 20260509160144 | 69 | 225 | 6.0 | 12.0 | 0.00 | 0.00 | 0.00 | 58 | 1010.6 |
| 20260509155642 | 69 | 234 | 5.0 | 14.0 | 0.00 | 0.00 | 0.00 | 59 | 1010.8 |
| 20260509155141 | 69 | 207 | 6.0 | 14.0 | 0.00 | 0.00 | 0.00 | 58 | 1010.8 |
| 20260509154636 | 68 | 212 | 8.0 | 15.0 | 0.00 | 0.00 | 0.00 | 58 | 1010.8 |
| 20260509154136 | 69 | 211 | 8.0 | 15.0 | 0.00 | 0.00 | 0.00 | 57 | 1010.8 |
| 20260509153636 | 69 | 182 | 7.0 | 17.0 | 0.00 | 0.00 | 0.00 | 56 | 1010.6 |
| 20260509153353 | 68 | 269 | 7.0 | 17.0 | 0.00 | 0.00 | 0.00 | 59 | 1010.6 |
| 20260509152632 | 67 | 227 | 9.0 | 17.0 | 0.00 | 0.00 | 0.00 | 58 | 1010.9 |
| 20260509152132 | 67 | 221 | 9.0 | 17.0 | 0.00 | 0.00 | 0.00 | 56 | 1010.9 |
| 20260509151631 | 68 | 218 | 8.0 | 16.0 | 0.00 | 0.00 | 0.00 | 56 | 1011.1 |
| 20260509151129 | 67 | 186 | 7.0 | 16.0 | 0.00 | 0.00 | 0.00 | 60 | 1011.0 |
| 20260509150629 | 67 | 205 | 7.0 | 13.0 | 0.00 | 0.00 | 0.00 | 57 | 1011.0 |
| 20260509150126 | 66 | 209 | 7.0 | 17.0 | 0.00 | 0.00 | 0.00 | 60 | 1010.8 |
| 20260509145627 | 66 | 173 | 7.0 | 17.0 | 0.00 | 0.00 | 0.00 | 60 | 1010.9 |
| 20260509145353 | 65 | 207 | 6.0 | 14.0 | 0.00 | 0.00 | 0.00 | 60 | 1010.9 |
| 20260509144843 | 65 | 184 | 6.0 | 14.0 | 0.00 | 0.00 | 0.00 | 61 | 1011.1 |
| 20260509144343 | 64 | 182 | 6.0 | 14.0 | 0.00 | 0.00 | 0.00 | 61 | 1011.1 |
| 20260509143622 | 64 | 190 | 6.0 | 15.0 | 0.00 | 0.00 | 0.00 | 63 | 1011.1 |
| 20260509143122 | 64 | 188 | 6.0 | 15.0 | 0.00 | 0.00 | 0.00 | 64 | 1011.3 |
| 20260509142622 | 63 | 131 | 7.0 | 14.0 | 0.00 | 0.00 | 0.00 | 64 | 1011.3 |
| 20260509142122 | 63 | 198 | 6.0 | 14.0 | 0.00 | 0.00 | 0.00 | 63 | 1011.6 |
| 20260509141623 | 63 | 209 | 5.0 | 12.0 | 0.00 | 0.00 | 0.00 | 64 | 1011.6 |
| 20260509141126 | 62 | 214 | 5.0 | 12.0 | 0.00 | 0.00 | 0.00 | 63 | 1011.6 |
| 20260509140616 | 62 | 204 | 5.0 | 11.0 | 0.00 | 0.00 | 0.00 | 64 | 1011.6 |
| 20260509140116 | 62 | 192 | 5.0 | 11.0 | 0.00 | 0.00 | 0.00 | 64 | 1011.6 |
| 20260509135615 | 61 | 198 | 4.0 | 9.0 | 0.00 | 0.00 | 0.00 | 64 | 1011.7 |
| 20260509135112 | 61 | 217 | 5.0 | 11.0 | 0.00 | 0.00 | 0.00 | 65 | 1011.7 |
| 20260509134608 | 60 | 189 | 6.0 | 11.0 | 0.00 | 0.00 | 0.00 | 65 | 1011.8 |
| 20260509134113 | 60 | 198 | 7.0 | 12.0 | 0.00 | 0.00 | 0.00 | 65 | 1011.9 |
| 20260509133606 | 60 | 211 | 6.0 | 12.0 | 0.00 | 0.00 | 0.00 | 65 | 1012.0 |
| 20260509133331 | 60 | 207 | 5.0 | 11.0 | 0.00 | 0.00 | 0.00 | 65 | 1012.0 |
| 20260509132823 | 60 | 214 | 4.0 | 12.0 | 0.00 | 0.00 | 0.00 | 65 | 1012.0 |
| 20260509132105 | 59 | 160 | 5.0 | 12.0 | 0.00 | 0.00 | 0.00 | 66 | 1012.1 |
| 20260509131604 | 59 | 217 | 5.0 | 14.0 | 0.00 | 0.00 | 0.00 | 66 | 1012.0 |
| 20260509131104 | 59 | 206 | 6.0 | 14.0 | 0.00 | 0.00 | 0.00 | 66 | 1011.9 |
| 20260509130607 | 59 | 239 | 7.0 | 14.0 | 0.00 | 0.00 | 0.00 | 65 | 1012.0 |
| 20260509125614 | 59 | 175 | 6.0 | 11.0 | 0.00 | 0.00 | 0.00 | 66 | 1011.9 |
| 20260509125319 | 58 | 211 | 5.0 | 11.0 | 0.00 | 0.00 | 0.00 | 66 | 1012.0 |
| 20260509124600 | 58 | 181 | 5.0 | 11.0 | 0.00 | 0.00 | 0.00 | 66 | 1012.0 |
| 20260509124100 | 58 | 203 | 6.0 | 11.0 | 0.00 | 0.00 | 0.00 | 67 | 1012.0 |
| 20260509123825 | 57 | 182 | 6.0 | 15.0 | 0.00 | 0.00 | 0.00 | 66 | 1012.0 |
| 20260509123324 | 57 | 197 | 6.0 | 15.0 | 0.00 | 0.00 | 0.00 | 66 | 1012.0 |
| 20260509122557 | 57 | 207 | 5.0 | 10.0 | 0.00 | 0.00 | 0.00 | 66 | 1012.1 |
| 20260509122324 | 57 | 128 | 5.0 | 11.0 | 0.00 | 0.00 | 0.00 | 67 | 1012.0 |
| 20260509121556 | 57 | 190 | 6.0 | 11.0 | 0.00 | 0.00 | 0.00 | 66 | 1012.0 |
| 20260509121108 | 57 | 219 | 6.0 | 11.0 | 0.00 | 0.00 | 0.00 | 67 | 1011.9 |
| 20260509120554 | 57 | 176 | 5.0 | 10.0 | 0.00 | 0.00 | 0.00 | 67 | 1011.8 |
| 20260509120055 | 57 | 166 | 4.0 | 11.0 | 0.00 | 0.00 | 0.00 | 67 | 1011.9 |
| 20260509115554 | 56 | 169 | 4.0 | 11.0 | 0.00 | 0.00 | 0.00 | 67 | 1012.0 |
| 20260509115052 | 56 | 219 | 5.0 | 11.0 | 0.00 | 0.00 | 0.00 | 68 | 1011.9 |
| 20260509114552 | 56 | 194 | 5.0 | 10.0 | 0.00 | 0.00 | 0.00 | 67 | 1012.0 |
| 20260509114052 | 56 | 160 | 5.0 | 10.0 | 0.00 | 0.00 | 0.00 | 67 | 1012.0 |
| 20260509113555 | 55 | 173 | 5.0 | 10.0 | 0.00 | 0.00 | 0.00 | 67 | 1012.0 |
| 20260509113050 | 55 | 163 | 5.0 | 10.0 | 0.00 | 0.00 | 0.00 | 67 | 1012.0 |
| 20260509112601 | 55 | 203 | 4.0 | 9.0 | 0.00 | 0.00 | 0.00 | 67 | 1011.9 |
| 20260509112313 | 55 | 192 | 4.0 | 8.0 | 0.00 | 0.00 | 0.00 | 67 | 1011.9 |
| 20260509111547 | 55 | 130 | 4.0 | 8.0 | 0.00 | 0.00 | 0.00 | 66 | 1012.0 |
| 20260509111048 | 55 | 180 | 3.0 | 8.0 | 0.00 | 0.00 | 0.00 | 65 | 1012.0 |
| 20260509110546 | 55 | 202 | 3.0 | 6.0 | 0.00 | 0.00 | 0.00 | 65 | 1012.0 |
| 20260509110522 | 55 | 180 | 3.0 | 7.0 | 0.00 | 0.00 | 0.00 | 65 | 1011.9 |
| 20260509105545 | 55 | 176 | 3.0 | 7.0 | 0.00 | 0.00 | 0.00 | 65 | 1011.9 |
| 20260509105049 | 54 | 201 | 2.0 | 8.0 | 0.00 | 0.00 | 0.00 | 65 | 1011.9 |
| 20260509104759 | 55 | 181 | 3.0 | 8.0 | 0.00 | 0.00 | 0.00 | 64 | 1011.9 |
| 20260509104040 | 55 | 153 | 4.0 | 8.0 | 0.00 | 0.00 | 0.00 | 63 | 1011.8 |
| 20260509103544 | 55 | 156 | 3.0 | 7.0 | 0.00 | 0.00 | 0.00 | 64 | 1011.8 |
| 20260509103038 | 54 | 162 | 3.0 | 6.0 | 0.00 | 0.00 | 0.00 | 64 | 1011.8 |
| 20260509102549 | 54 | 157 | 3.0 | 6.0 | 0.00 | 0.00 | 0.00 | 64 | 1011.8 |
| 20260509102036 | 54 | 173 | 3.0 | 6.0 | 0.00 | 0.00 | 0.00 | 64 | 1011.8 |
| 20260509101536 | 54 | 200 | 3.0 | 6.0 | 0.00 | 0.00 | 0.00 | 64 | 1011.8 |
| 20260509101036 | 54 | 178 | 3.0 | 7.0 | 0.00 | 0.00 | 0.00 | 64 | 1011.7 |
| 20260509100534 | 54 | 148 | 3.0 | 7.0 | 0.00 | 0.00 | 0.00 | 64 | 1011.6 |
| 20260509100032 | 54 | 181 | 4.0 | 7.0 | 0.00 | 0.00 | 0.00 | 64 | 1011.5 |
| 20260509095531 | 54 | 169 | 3.0 | 7.0 | 0.00 | 0.00 | 0.00 | 64 | 1011.5 |
| 20260509095028 | 54 | 180 | 2.0 | 5.0 | 0.00 | 0.00 | 0.00 | 64 | 1011.6 |
| 20260509094539 | 54 | 156 | 2.0 | 7.0 | 0.00 | 0.00 | 0.00 | 64 | 1011.6 |
| 20260509094026 | 54 | 157 | 2.0 | 7.0 | 0.00 | 0.00 | 0.00 | 64 | 1011.7 |
| 20260509093526 | 54 | 158 | 2.0 | 6.0 | 0.00 | 0.00 | 0.00 | 63 | 1011.6 |
| 20260509093026 | 55 | 209 | 3.0 | 5.0 | 0.00 | 0.00 | 0.00 | 63 | 1011.7 |
| 20260509092522 | 54 | 201 | 3.0 | 5.0 | 0.00 | 0.00 | 0.00 | 63 | 1011.8 |
| 20260509092019 | 54 | 183 | 2.0 | 6.0 | 0.00 | 0.00 | 0.00 | 63 | 1011.8 |
| 20260509091529 | 54 | 199 | 2.0 | 6.0 | 0.00 | 0.00 | 0.00 | 63 | 1011.8 |
| 20260509091235 | 54 | 183 | 2.0 | 5.0 | 0.00 | 0.00 | 0.00 | 63 | 1011.9 |
| 20260509090519 | 55 | 159 | 2.0 | 5.0 | 0.00 | 0.00 | 0.00 | 63 | 1011.9 |
| 20260509090019 | 55 | 148 | 2.0 | 5.0 | 0.00 | 0.00 | 0.00 | 62 | 1011.9 |
| 20260509085519 | 55 | 150 | 2.0 | 5.0 | 0.00 | 0.00 | 0.00 | 62 | 1012.0 |
| 20260509085013 | 54 | 165 | 2.0 | 7.0 | 0.00 | 0.00 | 0.00 | 63 | 1012.1 |
| 20260509084513 | 54 | 148 | 1.0 | 7.0 | 0.00 | 0.00 | 0.00 | 62 | 1012.2 |
| 20260509084007 | 55 | 164 | 3.0 | 7.0 | 0.00 | 0.00 | 0.00 | 63 | 1012.2 |
| 20260509083505 | 55 | 153 | 3.0 | 7.0 | 0.00 | 0.00 | 0.00 | 62 | 1012.1 |
| 20260509083005 | 55 | 150 | 3.0 | 6.0 | 0.00 | 0.00 | 0.00 | 62 | 1012.2 |
| 20260509082506 | 55 | 140 | 3.0 | 8.0 | 0.00 | 0.00 | 0.00 | 62 | 1012.2 |
| 20260509082006 | 55 | 153 | 3.0 | 8.0 | 0.00 | 0.00 | 0.00 | 61 | 1012.4 |
| 20260509081506 | 55 | 157 | 4.0 | 8.0 | 0.00 | 0.00 | 0.00 | 61 | 1012.4 |
| 20260509081005 | 55 | 148 | 4.0 | 8.0 | 0.00 | 0.00 | 0.00 | 61 | 1012.4 |
| 20260509080729 | 55 | 167 | 3.0 | 7.0 | 0.00 | 0.00 | 0.00 | 60 | 1012.5 |
| 20260509080006 | 55 | 179 | 3.0 | 7.0 | 0.00 | 0.00 | 0.00 | 61 | 1012.5 |
| 20260509075728 | 55 | 165 | 3.0 | 7.0 | 0.00 | 0.00 | 0.00 | 60 | 1012.5 |
| 20260509075006 | 56 | 155 | 3.0 | 7.0 | 0.00 | 0.00 | 0.00 | 60 | 1012.6 |
| 20260509074727 | 56 | 131 | 3.0 | 7.0 | 0.00 | 0.00 | 0.00 | 59 | 1012.7 |
| 20260509074229 | 56 | 135 | 3.0 | 7.0 | 0.00 | 0.00 | 0.00 | 59 | 1012.7 |
| 20260509073505 | 56 | 164 | 3.0 | 7.0 | 0.00 | 0.00 | 0.00 | 59 | 1012.7 |
| 20260509073225 | 56 | 143 | 2.0 | 5.0 | 0.00 | 0.00 | 0.00 | 60 | 1012.7 |
| 20260509072505 | 55 | 142 | 2.0 | 4.0 | 0.00 | 0.00 | 0.00 | 59 | 1012.7 |
| 20260509072005 | 55 | 163 | 2.0 | 6.0 | 0.00 | 0.00 | 0.00 | 59 | 1012.6 |
| 20260509071727 | 55 | 128 | 2.0 | 6.0 | 0.00 | 0.00 | 0.00 | 59 | 1012.7 |
| 20260509071005 | 56 | 155 | 3.0 | 6.0 | 0.00 | 0.00 | 0.00 | 58 | 1012.6 |
| 20260509070459 | 56 | 145 | 3.0 | 6.0 | 0.00 | 0.00 | 0.00 | 58 | 1012.6 |
| 20260509065958 | 56 | 143 | 3.0 | 7.0 | 0.00 | 0.00 | 0.00 | 57 | 1012.6 |
| 20260509065458 | 56 | 136 | 4.0 | 7.0 | 0.00 | 0.00 | 0.00 | 57 | 1012.7 |
| 20260509065002 | 56 | 160 | 3.0 | 8.0 | 0.00 | 0.00 | 0.00 | 57 | 1012.7 |
| 20260509064453 | 56 | 138 | 2.0 | 8.0 | 0.00 | 0.00 | 0.00 | 56 | 1012.7 |
| 20260509064218 | 56 | 149 | 3.0 | 8.0 | 0.00 | 0.00 | 0.00 | 56 | 1012.7 |
| 20260509063456 | 56 | 176 | 3.0 | 8.0 | 0.00 | 0.00 | 0.00 | 56 | 1012.7 |
| 20260509062953 | 56 | 167 | 2.0 | 5.0 | 0.00 | 0.00 | 0.00 | 57 | 1012.7 |
| 20260509062453 | 56 | 158 | 2.0 | 6.0 | 0.00 | 0.00 | 0.00 | 57 | 1012.7 |
| 20260509062210 | 56 | 187 | 2.0 | 6.0 | 0.00 | 0.00 | 0.00 | 57 | 1012.8 |
| 20260509061451 | 55 | 133 | 2.0 | 5.0 | 0.00 | 0.00 | 0.00 | 57 | 1012.8 |